This demonstration page uses our WeatherBlox Daily Observations layout. Learn more.

39.92423, -83.80882

Hourly Observations for September 14, 2020

Temp ( °F °C ) Dew Point ( °F °C ) Humidity (%) Winds ( mph kmh ) Pressure ( in mb ) Visibility ( mi km ) Precip ( " mm )
12:56 am 00:56 Clear 61 16.1 61 16.1 100 100 N 3 6 30.19 1022 10 16.0934 0 0
1:56 am 01:56 Clear 62 16.7 61 16.1 96 96 N 8 13 30.2 1023 10 16.0934 0 0
2:56 am 02:56 Clear 60 15.6 60 15.6 100 100 N 7 11 30.2 1023 10 16.0934 0 0
3:56 am 03:56 Clear 60 15.6 60 15.6 100 100 NNE 7 11 30.21 1023 10 16.0934 0.01 0.254
4:56 am 04:56 Clear 59 15 59 15 100 100 NNE 6 9 30.22 1024 10 16.0934 0 0
5:56 am 05:56 Clear 58 14.4 58 14.4 100 100 NNE 6 9 30.24 1024 10 16.0934 0 0
6:56 am 06:56 Clear 57 13.9 57 13.9 100 100 NE 6 9 30.26 1025 10 16.0934 0 0
7:56 am 07:56 Sunny 58 14.4 58 14.4 100 100 NE 7 11 30.29 1026 10 16.0934 0 0
8:56 am 08:56 Sunny 62 16.7 62 16.7 100 100 NE 13 20 30.3 1026 10 16.0934 0 0
9:56 am 09:56 Sunny 65 18.3 62 16.7 90 90 ENE 10 17 30.32 1027 10 16.0934 0 0
10:56 am 10:56 Sunny 68 20 60 15.6 76 76 NE 13 20 30.33 1027 10 16.0934 0 0
11:56 am 11:56 Sunny 70 21.1 60 15.6 71 71 NE 9 15 30.34 1027 10 16.0934 0 0
12:56 pm 12:56 Partly Cloudy 72 22.2 58 14.4 61 61 ENE 10 17 30.32 1027 10 16.0934 0 0
1:56 pm 13:56 Mostly Sunny 73 22.8 57 13.9 57 57 E 13 20 30.32 1027 10 16.0934 0.01 0.254
2:56 pm 14:56 Mostly Sunny 74 23.3 58 14.4 57 57 NE 14 22 30.32 1027 10 16.0934 0 0
3:56 pm 15:56 Mostly Cloudy 73 22.8 58 14.4 59 59 NNE 12 19 30.3 1026 10 16.0934 0 0
4:56 pm 16:56 Mostly Sunny 72 22.2 57 13.9 59 59 NNE 12 19 30.29 1026 10 16.0934 0 0
5:56 pm 17:56 Mostly Sunny 71 21.7 56 13.3 59 59 NE 10 17 30.3 1026 10 16.0934 0 0
6:56 pm 18:56 Mostly Sunny 68 20 55 12.8 63 63 NE 13 20 30.31 1026 10 16.0934 0 0
7:56 pm 19:56 Clear 61 16.1 55 12.8 81 81 NE 7 11 30.32 1027 10 16.0934 0 0
8:56 pm 20:56 Clear 59 15 55 12.8 87 87 NE 9 15 30.33 1027 10 16.0934 0.01 0.254
9:56 pm 21:56 Clear 59 15 56 13.3 90 90 NE 9 15 30.35 1028 10 16.0934 0 0
10:56 pm 22:56 Clear 57 13.9 56 13.3 96 96 E 8 13 30.35 1028 10 16.0934 0 0
11:56 pm 23:56 Clear 54 12.2 54 12.2 100 100 E 6 9 30.35 1028 10 16.0934 0 0

Powered by AerisWeather